When you browse on this site, cookies collect data to enhance your experience and personalize the content and advertising you see.
Visit our Privacy Policy to learn more. By continuing to use the site, you agree to this use of cookies and data.
  • In Lithuania
  • List of Countries
  • For 7 days
  • Water Temperature
  • Weather Map
  • Weather Widgets
  • user-avatar
    Login

    Hourly Weather Cerny Most

    Today, 23 September, Monday

    Time Temperature Precipitation Wind Pressure Humidity
    00:00 +10°C° 0 mm 2 mps 737 mmHg 66%
    01:00 +10°C° 0 mm 2 mps 737 mmHg 67%
    02:00 +10°C° 0 mm 1 mps 737 mmHg 68%
    03:00 +10°C° 0 mm 1 mps 737 mmHg 68%
    04:00 +10°C° 0 mm 1 mps 736 mmHg 69%
    05:00 +10°C° 0 mm 1 mps 737 mmHg 69%
    06:00 +11°C° 0 mm 1 mps 737 mmHg 69%
    07:00 +11°C° 0 mm 1 mps 737 mmHg 69%
    08:00 +13°C° 0 mm 1 mps 737 mmHg 64%
    09:00 +15°C° 0 mm 1 mps 737 mmHg 59%
    10:00 +18°C° 0 mm 1 mps 738 mmHg 54%
    11:00 +19°C° 0 mm 1 mps 738 mmHg 52%
    12:00 +20°C° 0 mm 1 mps 738 mmHg 50%
    13:00 +21°C° 0 mm 1 mps 738 mmHg 48%
    14:00 +21°C° 0 mm 1 mps 738 mmHg 50%
    15:00 +21°C° 0 mm 1 mps 738 mmHg 51%
    16:00 +21°C° 0 mm 1 mps 738 mmHg 53%
    17:00 +19°C° 0 mm 1 mps 738 mmHg 60%
    18:00 +17°C° 0 mm 2 mps 738 mmHg 68%
    19:00 +16°C° 0 mm 2 mps 738 mmHg 75%
    20:00 +15°C° 0 mm 2 mps 739 mmHg 79%
    21:00 +15°C° 0 mm 2 mps 739 mmHg 83%
    22:00 +15°C° 0 mm 2 mps 739 mmHg 87%
    23:00 +14°C° 0 mm 2 mps 739 mmHg 88%

    Tomorrow, 24 September, Tuesday

    Time Temperature Precipitation Wind Pressure Humidity
    00:00 +14°C° 0 mm 2 mps 739 mmHg 90%
    01:00 +14°C° 0 mm 2 mps 739 mmHg 91%
    02:00 +14°C° 0 mm 2 mps 739 mmHg 91%
    03:00 +14°C° 0 mm 2 mps 739 mmHg 92%
    04:00 +14°C° 0 mm 1 mps 739 mmHg 92%
    05:00 +14°C° 0 mm 1 mps 739 mmHg 91%
    06:00 +14°C° 0 mm 1 mps 739 mmHg 90%
    07:00 +14°C° 0 mm 1 mps 739 mmHg 89%
    08:00 +15°C° 0 mm 1 mps 739 mmHg 86%
    09:00 +16°C° 0 mm 1 mps 739 mmHg 82%
    10:00 +16°C° 0 mm 1 mps 739 mmHg 79%
    11:00 +18°C° 0 mm 1 mps 739 mmHg 77%
    12:00 +18°C° 0 mm 1 mps 738 mmHg 75%
    13:00 +18°C° 0 mm 1 mps 738 mmHg 74%
    14:00 +19°C° 0 mm 1 mps 737 mmHg 72%
    15:00 +19°C° 0 mm 1 mps 737 mmHg 69%
    16:00 +20°C° 0 mm 1 mps 737 mmHg 67%
    17:00 +19°C° 0 mm 1 mps 736 mmHg 71%
    18:00 +18°C° 0 mm 1 mps 736 mmHg 75%
    19:00 +16°C° 0 mm 1 mps 736 mmHg 79%
    20:00 +15°C° 0 mm 1 mps 736 mmHg 80%
    21:00 +15°C° 0 mm 1 mps 736 mmHg 81%
    22:00 +15°C° 0 mm 1 mps 736 mmHg 82%
    23:00 +14°C° 0 mm 1 mps 736 mmHg 83%

    Day after tomorrow, 25 September, Wednesday

    Time Temperature Precipitation Wind Pressure Humidity
    00:00 +14°C° 0 mm 1 mps 735 mmHg 84%
    01:00 +14°C° 0 mm 2 mps 735 mmHg 84%
    02:00 +14°C° 0 mm 2 mps 735 mmHg 84%
    03:00 +14°C° 0 mm 2 mps 735 mmHg 83%
    04:00 +14°C° 0 mm 2 mps 734 mmHg 83%
    05:00 +13°C° 0.2 mm 3 mps 734 mmHg 83%
    06:00 +13°C° 0.2 mm 3 mps 734 mmHg 83%
    07:00 +13°C° 0.2 mm 3 mps 734 mmHg 84%
    08:00 +15°C° 0.1 mm 4 mps 734 mmHg 78%
    09:00 +17°C° 0.1 mm 4 mps 734 mmHg 72%
    10:00 +19°C° 0.1 mm 4 mps 735 mmHg 67%
    11:00 +19°C° 0.1 mm 5 mps 735 mmHg 62%
    12:00 +20°C° 0.1 mm 5 mps 734 mmHg 57%
    13:00 +21°C° 0.1 mm 6 mps 734 mmHg 52%
    14:00 +20°C° 0.1 mm 6 mps 734 mmHg 54%
    15:00 +19°C° 0.1 mm 6 mps 734 mmHg 56%
    16:00 +19°C° 0.1 mm 6 mps 734 mmHg 58%
    17:00 +16°C° 0.1 mm 5 mps 735 mmHg 63%
    18:00 +15°C° 0.1 mm 4 mps 735 mmHg 68%
    19:00 +14°C° 0.1 mm 3 mps 735 mmHg 72%
    20:00 +13°C° 0 mm 4 mps 736 mmHg 73%
    21:00 +13°C° 0 mm 4 mps 736 mmHg 74%
    22:00 +13°C° 0 mm 4 mps 736 mmHg 75%
    23:00 +12°C° 0 mm 4 mps 736 mmHg 78%

    26 September, Thursday

    Time Temperature Precipitation Wind Pressure Humidity
    00:00 +12°C° 0 mm 4 mps 736 mmHg 81%
    01:00 +12°C° 0 mm 4 mps 737 mmHg 84%
    02:00 +12°C° 0.2 mm 4 mps 737 mmHg 85%
    03:00 +12°C° 0.2 mm 3 mps 737 mmHg 86%
    04:00 +12°C° 0.2 mm 3 mps 737 mmHg 87%
    05:00 +12°C° 0.1 mm 3 mps 737 mmHg 87%
    06:00 +12°C° 0.1 mm 3 mps 737 mmHg 87%
    07:00 +12°C° 0.1 mm 4 mps 737 mmHg 87%
    08:00 +13°C° 0.2 mm 4 mps 738 mmHg 84%
    09:00 +14°C° 0.2 mm 4 mps 738 mmHg 81%
    10:00 +16°C° 0.2 mm 3 mps 739 mmHg 78%
    11:00 +17°C° 0.1 mm 4 mps 739 mmHg 73%
    12:00 +18°C° 0.1 mm 4 mps 739 mmHg 68%
    13:00 +19°C° 0.1 mm 4 mps 739 mmHg 63%
    14:00 +19°C° 0.1 mm 4 mps 739 mmHg 62%
    15:00 +19°C° 0.1 mm 4 mps 739 mmHg 62%
    16:00 +19°C° 0.1 mm 4 mps 739 mmHg 62%
    17:00 +18°C° 0.1 mm 4 mps 739 mmHg 70%
    18:00 +16°C° 0.1 mm 3 mps 739 mmHg 78%
    19:00 +14°C° 0.1 mm 3 mps 739 mmHg 87%
    20:00 +14°C° 0 mm 3 mps 739 mmHg 87%
    21:00 +14°C° 0 mm 3 mps 740 mmHg 87%
    22:00 +14°C° 0 mm 3 mps 740 mmHg 88%
    23:00 +15°C° 0 mm 2 mps 740 mmHg 89%

    27 September, Friday

    Time Temperature Precipitation Wind Pressure Humidity
    00:00 +15°C° 0 mm 2 mps 740 mmHg 90%
    01:00 +14°C° 0 mm 2 mps 740 mmHg 91%
    02:00 +14°C° 0 mm 2 mps 740 mmHg 92%
    03:00 +14°C° 0 mm 2 mps 740 mmHg 92%
    04:00 +14°C° 0 mm 2 mps 740 mmHg 93%
    05:00 +14°C° 0 mm 2 mps 739 mmHg 92%
    06:00 +15°C° 0 mm 2 mps 739 mmHg 91%
    07:00 +15°C° 0 mm 2 mps 739 mmHg 90%
    08:00 +16°C° 0 mm 2 mps 739 mmHg 85%
    09:00 +17°C° 0 mm 2 mps 739 mmHg 80%
    10:00 +18°C° 0 mm 2 mps 740 mmHg 75%
    11:00 +19°C° 0 mm 3 mps 739 mmHg 70%
    12:00 +21°C° 0 mm 3 mps 739 mmHg 64%
    13:00 +22°C° 0 mm 4 mps 739 mmHg 58%
    14:00 +22°C° 0 mm 4 mps 738 mmHg 59%
    15:00 +22°C° 0 mm 3 mps 738 mmHg 59%
    16:00 +21°C° 0 mm 3 mps 738 mmHg 60%
    17:00 +20°C° 0 mm 3 mps 738 mmHg 65%
    18:00 +19°C° 0 mm 3 mps 738 mmHg 71%
    19:00 +17°C° 0 mm 3 mps 738 mmHg 76%
    20:00 +17°C° 0.2 mm 3 mps 738 mmHg 78%
    21:00 +17°C° 0.2 mm 4 mps 738 mmHg 81%
    22:00 +17°C° 0.2 mm 4 mps 738 mmHg 83%
    23:00 +15°C° 0.1 mm 4 mps 738 mmHg 84%

    28 September, Saturday

    Time Temperature Precipitation Wind Pressure Humidity
    00:00 +15°C° 0.1 mm 4 mps 738 mmHg 84%
    01:00 +15°C° 0.1 mm 4 mps 738 mmHg 85%
    02:00 +16°C° 0 mm 3 mps 738 mmHg 86%
    03:00 +14°C° 0 mm 3 mps 738 mmHg 88%
    04:00 +14°C° 0 mm 3 mps 738 mmHg 89%
    05:00 +14°C° 0.1 mm 3 mps 738 mmHg 88%
    06:00 +14°C° 0.1 mm 3 mps 738 mmHg 88%
    07:00 +14°C° 0.1 mm 3 mps 738 mmHg 87%
    08:00 +17°C° 0.1 mm 4 mps 738 mmHg 77%
    09:00 +17°C° 0.1 mm 5 mps 738 mmHg 67%
    10:00 +19°C° 0.1 mm 6 mps 738 mmHg 58%
    11:00 +20°C° 0 mm 6 mps 738 mmHg 54%
    12:00 +20°C° 0 mm 6 mps 738 mmHg 50%
    13:00 +21°C° 0 mm 6 mps 738 mmHg 46%
    14:00 +20°C° 0.1 mm 6 mps 738 mmHg 50%
    15:00 +19°C° 0.1 mm 5 mps 738 mmHg 54%
    16:00 +17°C° 0.1 mm 5 mps 737 mmHg 58%
    17:00 +16°C° 0 mm 5 mps 738 mmHg 62%
    18:00 +15°C° 0 mm 4 mps 738 mmHg 66%
    19:00 +13°C° 0 mm 3 mps 738 mmHg 69%
    20:00 +13°C° 0 mm 4 mps 738 mmHg 73%
    21:00 +12°C° 0 mm 4 mps 738 mmHg 76%
    22:00 +12°C° 0 mm 4 mps 738 mmHg 80%
    23:00 +12°C° 0 mm 4 mps 738 mmHg 81%
    Show more